Showing default

TIANMU-1 16, 58701

Orbit data source: Space-Track

TIANMU-1 16, 58701 is a payload satellite owned by Hangtian Tianmu (CN) in SSO that was launched on Fri, 05 Jan 2024 UTC via a KUAIZHOU-1A launch vehicle from the Jiuquan Satellite Launch Center, China (JSC). Payload-class satellites include a variety of spacecraft equipped with specific instruments for various scientific and technological missions. These include communications satellites like Starlink; space stations such as the ISS; scientific satellites like the Hubble; Earth observation satellites from companies like Planet Labs, Umbra, and HawkEye 360; GPS; miniature CubeSats for education and research; and military/defense satellites.

Loading next visibility...
Identifier
58701, 2024-004B
Orbit
SSO
Country
Flag of CNCN / PRC
Related business
Manufacturer
Hangtian Tianmu
Mission
Operational Commercial Weather
Bus & Motor
TIANMU, Unknown motor
Mass
50 kg wet, ~50 kg dry
Launch date (UTC)
2024-01-05 (2 years ago)
Launch vehicle
KUAIZHOU-1A
Launch site
Jiuquan Satellite Launch Center, China (JSC)
Object type
Payload
Rocket body
Debris
Shape & HBR
Box, 0.8 m
Radar Cross Section
2.000 m², Large (>1 m²)

Expand to show TLE details & history
Last TLE update: 1 day ago

TLE from 1 day ago
0 TIANMU-1 16
1 58701U 24004B   26172.54456803  .00004530  00000-0  17484-3 0  9993
2 58701  97.4622 357.9677 0005379 352.3663   7.7493 15.26785843136446
Epoch: 2026-06-21T13:04Z
TLE epoch observation values (Epoch: 2026-06-21T13:04:10.677Z)
Latitude
-0.00003°
Longitude
-107.82009°
Altitude
484.867 km
Speed
7.625 km/s
True Right ascension
23h 51m 52s
True Declination
0° 00' 00"
Sunlit
Object was in daylight at epoch
Visualization orbit readout
Latitude
Unknown
Longitude
Unknown
Altitude
Unknown
Speed
Unknown
Apparent Right ascension
Unknown
Apparent Declination
Unknown
Sunlit
N/A
Visualization observer readout
Local Sidereal Time
00:50:50
Azimuth
Unknown
Elevation
Unknown
Doppler factor
Unknown
Orbital elements
Apogee altitude
486.078 km
Perigee altitude
478.697 km
Semi-major axis
6,860.524 km
Eccentricity
0.00054
Inclination
97.4622°
RAAN
357.9677°
Arg. of periapsis
352.3663°
True anomaly
7.75762°
Mean anomaly
7.7493°
Eccentric anomaly
7.75346°
Mean motion
3.81951 °/min
Orbital period
94.25 mins
BSTAR
0.00017484
Loading maneuver chart data...
Computing Atmospheric mass density...
Loading historical data...
Loading historical data...
Loading historical data...
Loading historical data...
Loading historical data...
Loading historical data...
Loading historical data...
Other satellites on launch #4 in the year 2024 (2024-01-05 UTC)

Documentation

Showing up to 5 results
|